Previsão horária em Pleteni

Hoje, 25 Fevereiro, Quinta-feira

Tempo Temperatura Precipitação Vento Pressão Humidade
00:00 -25°C° 0 mm 1 m/s 759 mmHg 96%
01:00 -25°C° 0 mm 1 m/s 758 mmHg 95%
02:00 -25°C° 0 mm 1 m/s 758 mmHg 94%
03:00 -28°C° 0 mm 2 m/s 758 mmHg 94%
04:00 -27°C° 0 mm 2 m/s 757 mmHg 93%
05:00 -26°C° 0 mm 2 m/s 756 mmHg 92%
06:00 -27°C° 0 mm 3 m/s 756 mmHg 92%
07:00 -26°C° 0 mm 3 m/s 755 mmHg 91%
08:00 -26°C° 0 mm 4 m/s 755 mmHg 90%
09:00 -26°C° 0 mm 5 m/s 754 mmHg 88%
10:00 -25°C° 0.1 mm 5 m/s 753 mmHg 91%
11:00 -24°C° 0.1 mm 6 m/s 752 mmHg 93%
12:00 -23°C° 0.1 mm 6 m/s 751 mmHg 95%
13:00 -22°C° 0.2 mm 6 m/s 751 mmHg 94%
14:00 -23°C° 0.2 mm 7 m/s 750 mmHg 94%
15:00 -21°C° 0.2 mm 7 m/s 749 mmHg 94%
16:00 -21°C° 0.4 mm 7 m/s 748 mmHg 94%
17:00 -21°C° 0.4 mm 7 m/s 748 mmHg 94%
18:00 -21°C° 0.4 mm 7 m/s 747 mmHg 94%
19:00 -21°C° 0.3 mm 6 m/s 747 mmHg 94%
20:00 -21°C° 0.3 mm 6 m/s 746 mmHg 94%
21:00 -21°C° 0.3 mm 6 m/s 746 mmHg 94%
22:00 -20°C° 0.2 mm 5 m/s 745 mmHg 94%
23:00 -20°C° 0.2 mm 5 m/s 745 mmHg 94%

Amanhã, 26 Fevereiro, Sexta-feira

Tempo Temperatura Precipitação Vento Pressão Humidade
00:00 -20°C° 0.2 mm 5 m/s 744 mmHg 94%
01:00 -19°C° 0.1 mm 5 m/s 744 mmHg 94%
02:00 -18°C° 0.1 mm 4 m/s 744 mmHg 94%
03:00 -18°C° 0.1 mm 4 m/s 744 mmHg 95%
04:00 -18°C° 0.1 mm 4 m/s 744 mmHg 95%
05:00 -18°C° 0.1 mm 4 m/s 743 mmHg 95%
06:00 -17°C° 0.1 mm 3 m/s 743 mmHg 95%
07:00 -17°C° 0 mm 3 m/s 743 mmHg 95%
08:00 -16°C° 0 mm 3 m/s 743 mmHg 95%
09:00 -16°C° 0 mm 3 m/s 743 mmHg 94%
10:00 -16°C° 0.1 mm 4 m/s 742 mmHg 94%
11:00 -15°C° 0.1 mm 4 m/s 742 mmHg 94%
12:00 -14°C° 0.1 mm 4 m/s 741 mmHg 94%
13:00 -12°C° 0.1 mm 4 m/s 741 mmHg 94%
14:00 -12°C° 0.1 mm 5 m/s 740 mmHg 94%
15:00 -12°C° 0.1 mm 5 m/s 739 mmHg 95%
16:00 -11°C° 0.6 mm 5 m/s 738 mmHg 95%
17:00 -11°C° 0.6 mm 6 m/s 737 mmHg 95%
18:00 -11°C° 0.6 mm 7 m/s 736 mmHg 95%
19:00 -9°C° 1.1 mm 6 m/s 735 mmHg 96%
20:00 -6°C° 1.1 mm 6 m/s 733 mmHg 96%
21:00 -5°C° 1.1 mm 6 m/s 732 mmHg 97%
22:00 -4°C° 1.5 mm 6 m/s 731 mmHg 98%
23:00 -3°C° 1.5 mm 6 m/s 731 mmHg 98%

Depois de amanhã, 27 Fevereiro, Sábado

Tempo Temperatura Precipitação Vento Pressão Humidade
00:00 -2°C° 1.5 mm 6 m/s 730 mmHg 99%
01:00 -2°C° 0.1 mm 6 m/s 730 mmHg 97%
02:00 -2°C° 0.1 mm 6 m/s 730 mmHg 96%
03:00 -2°C° 0.1 mm 7 m/s 730 mmHg 94%
04:00 -3°C° 0.1 mm 6 m/s 729 mmHg 95%
05:00 -3°C° 0.1 mm 6 m/s 729 mmHg 95%
06:00 -3°C° 0.1 mm 6 m/s 729 mmHg 96%
07:00 -3°C° 0.1 mm 6 m/s 729 mmHg 96%
08:00 -3°C° 0.1 mm 6 m/s 729 mmHg 96%
09:00 -3°C° 0.1 mm 6 m/s 729 mmHg 96%
10:00 -3°C° 0.1 mm 6 m/s 729 mmHg 97%
11:00 -2°C° 0.1 mm 5 m/s 730 mmHg 98%
12:00 -2°C° 0.1 mm 5 m/s 730 mmHg 99%
13:00 -2°C° 0.2 mm 4 m/s 730 mmHg 99%
14:00 -2°C° 0.2 mm 4 m/s 730 mmHg 99%
15:00 -1°C° 0.2 mm 3 m/s 731 mmHg 99%
16:00 -4°C° 0.4 mm 4 m/s 731 mmHg 97%
17:00 -8°C° 0.4 mm 5 m/s 731 mmHg 95%
18:00 -11°C° 0.4 mm 5 m/s 731 mmHg 93%
19:00 -12°C° 0.1 mm 5 m/s 732 mmHg 93%
20:00 -13°C° 0.1 mm 5 m/s 733 mmHg 93%
21:00 -14°C° 0.1 mm 5 m/s 733 mmHg 93%
22:00 -15°C° 0.1 mm 5 m/s 734 mmHg 93%
23:00 -17°C° 0.1 mm 5 m/s 734 mmHg 93%

28 Fevereiro, Domingo

Tempo Temperatura Precipitação Vento Pressão Humidade
00:00 -18°C° 0.1 mm 6 m/s 734 mmHg 92%
01:00 -18°C° 0 mm 5 m/s 735 mmHg 93%
02:00 -19°C° 0 mm 5 m/s 735 mmHg 93%
03:00 -20°C° 0 mm 5 m/s 736 mmHg 94%
04:00 -21°C° 0 mm 5 m/s 737 mmHg 94%
05:00 -22°C° 0 mm 5 m/s 737 mmHg 94%
06:00 -24°C° 0 mm 5 m/s 737 mmHg 94%
07:00 -24°C° 0 mm 5 m/s 738 mmHg 94%
08:00 -24°C° 0 mm 5 m/s 738 mmHg 93%
09:00 -24°C° 0 mm 5 m/s 739 mmHg 93%
10:00 -22°C° 0 mm 5 m/s 739 mmHg 92%
11:00 -21°C° 0 mm 5 m/s 740 mmHg 91%
12:00 -21°C° 0 mm 5 m/s 740 mmHg 91%
13:00 -20°C° 0 mm 5 m/s 741 mmHg 91%
14:00 -19°C° 0 mm 5 m/s 741 mmHg 90%
15:00 -19°C° 0 mm 5 m/s 741 mmHg 90%
16:00 -19°C° 0 mm 5 m/s 742 mmHg 91%
17:00 -19°C° 0 mm 4 m/s 742 mmHg 93%
18:00 -20°C° 0 mm 4 m/s 743 mmHg 94%
19:00 -20°C° 0 mm 4 m/s 744 mmHg 94%
20:00 -22°C° 0 mm 4 m/s 744 mmHg 95%
21:00 -22°C° 0 mm 4 m/s 745 mmHg 95%
22:00 -23°C° 0 mm 4 m/s 745 mmHg 95%
23:00 -23°C° 0 mm 3 m/s 745 mmHg 96%

1 Março, Segunda-feira

Tempo Temperatura Precipitação Vento Pressão Humidade
00:00 -23°C° 0 mm 3 m/s 745 mmHg 96%
01:00 -24°C° 0 mm 3 m/s 746 mmHg 96%
02:00 -24°C° 0 mm 3 m/s 746 mmHg 97%
03:00 -26°C° 0 mm 4 m/s 747 mmHg 97%
04:00 -26°C° 0 mm 4 m/s 747 mmHg 97%
05:00 -26°C° 0 mm 3 m/s 748 mmHg 97%
06:00 -26°C° 0 mm 3 m/s 748 mmHg 97%
07:00 -26°C° 0 mm 4 m/s 749 mmHg 96%
08:00 -26°C° 0 mm 4 m/s 749 mmHg 95%
09:00 -25°C° 0 mm 4 m/s 750 mmHg 94%
10:00 -24°C° 0 mm 4 m/s 750 mmHg 94%
11:00 -21°C° 0 mm 3 m/s 750 mmHg 93%
12:00 -19°C° 0 mm 3 m/s 750 mmHg 92%
13:00 -19°C° 0 mm 3 m/s 750 mmHg 92%
14:00 -18°C° 0 mm 3 m/s 750 mmHg 91%
15:00 -17°C° 0 mm 3 m/s 750 mmHg 91%
16:00 -18°C° 0 mm 3 m/s 750 mmHg 92%
17:00 -19°C° 0 mm 3 m/s 750 mmHg 93%
18:00 -19°C° 0 mm 2 m/s 750 mmHg 94%
19:00 -19°C° 0 mm 2 m/s 750 mmHg 94%
20:00 -19°C° 0 mm 2 m/s 750 mmHg 95%
21:00 -21°C° 0 mm 3 m/s 749 mmHg 95%
22:00 -19°C° 0 mm 3 m/s 749 mmHg 95%
23:00 -18°C° 0 mm 3 m/s 748 mmHg 95%

2 Março, Terça-feira

Tempo Temperatura Precipitação Vento Pressão Humidade
00:00 -19°C° 0 mm 4 m/s 747 mmHg 95%
01:00 -17°C° 0.2 mm 4 m/s 746 mmHg 95%
02:00 -15°C° 0.2 mm 5 m/s 745 mmHg 95%
03:00 -15°C° 0.2 mm 6 m/s 744 mmHg 94%
04:00 -14°C° 0.6 mm 6 m/s 743 mmHg 94%
05:00 -12°C° 0.6 mm 6 m/s 742 mmHg 94%
06:00 -11°C° 0.6 mm 6 m/s 741 mmHg 94%
07:00 -10°C° 0.3 mm 6 m/s 740 mmHg 94%
08:00 -9°C° 0.3 mm 6 m/s 739 mmHg 94%
09:00 -8°C° 0.3 mm 6 m/s 738 mmHg 95%
10:00 -6°C° 0.3 mm 6 m/s 738 mmHg 96%
11:00 -4°C° 0.3 mm 6 m/s 737 mmHg 97%
12:00 -2°C° 0.3 mm 5 m/s 737 mmHg 99%
13:00 -3°C° 0.4 mm 6 m/s 736 mmHg 98%
14:00 -3°C° 0.4 mm 6 m/s 736 mmHg 98%
15:00 -3°C° 0.4 mm 6 m/s 736 mmHg 98%
16:00 -3°C° 0.2 mm 6 m/s 736 mmHg 95%
17:00 -3°C° 0.2 mm 6 m/s 736 mmHg 92%
18:00 -3°C° 0.2 mm 7 m/s 736 mmHg 89%
19:00 -4°C° 0 mm 6 m/s 737 mmHg 89%
20:00 -5°C° 0 mm 6 m/s 737 mmHg 89%
21:00 -6°C° 0 mm 6 m/s 738 mmHg 88%
22:00 -6°C° 0 mm 6 m/s 738 mmHg 89%
23:00 -7°C° 0 mm 7 m/s 738 mmHg 89%
Mostrar mais

Necessitamos do seu Consentimento

A Meteoprog e os seus Fornecedores de Serviços podem armazenar e aceder a dados pessoais como cookies, identificadores do dispositivo ou outras tecnologias semelhantes existentes no seu dispositivo e processar estes dados para personalizar conteúdos e anúncios, assim como funcionalidades nas redes sociais e análise de tráfego.

  • Armazenar e/ou aceder a informações no seu dispositivo

    Os cookies, identificadores do dispositivo ou outras informações podem ser armazenados ou acedidos no seu dispositivo, para os fins acima indicados.

  • Anúncios e conteúdos personalizados, medição de anúncios e conteúdos, dados sobre o público-alvo e desenvolvimento de produtos

    Os anúncios e os conteúdos podem ser personalizados com base num perfil. Podem ser adicionados dados adicionais para uma maior personalização dos anúncios e dos conteúdos. A eficácia dos anúncios e dos conteúdos pode ser medida. Podem ser obtidas informações sobre o público que visualizou os anúncios e os conteúdos. Estes dados podem ser usados para desenvolver ou melhorar sistemas, softwares ou a experiência do utilizador.

Ao clicar em "Eu concordo”, permitirá o uso de cookies, identificadores do dispositivo e web beacons mencionados ou outras tecnologias semelhantes. As configurações do navegador do seu dispositivo podem ser alteradas.

Para certos fins, podem ser invocados interesses legítimos ao invés de consentimento. Pode ler mais informação sobre este assunto na nossa Política de Privacidade e Cookies.